Regional Weather Roundup
Issued by NWS Grand Forks, ND

Home | Current Version | Previous Version | Graphics & Text | Print | Product List | Glossary On
Versions: 1 2 3 4 5 6 7 8 9 10 11 12 13 14 15 16 17 18 19 20 21 22 23 24 25 26 27 28 29 30 31 32 33 34 35 36 37 38 39 40 41 42 43 44 45 46 47 48 49 50
000
ASUS43 KFGF 232231
RWRFGF
PRAIRIE TO PINES  WEATHER ROUNDUP
NATIONAL WEATHER SERVICE EASTERN NORTH DAKOTA/GRAND FORKS ND
500 PM CDT SAT MAY 23 2015

 **SATELLITE DATA USED TO AUGMENT SKY COVER AT AUTOMATED STATIONS**
 *****  WEATHER ACROSS EASTERN NORTH DAKOTA  *****

CITY           SKY/WX    TMP DP  RH WIND       PRES   REMARKS
GRAND FORKS    PTSUNNY   77  43  29 S9G20     30.09F
GRAND FRKS AFB MOSUNNY   76  42  29 SW12      30.10F
GRAND FRKS NWS   N/A     73 N/A N/A S6          N/A
DEVILS LAKE    SUNNY     73  41  31 S10       30.09F
FARGO          PTSUNNY   72  46  39 S17G26    30.13F
WAHPETON ARPT  CLOUDY    68  41  37 S12G17    30.14F
$$

 ***** WEATHER ACROSS CENTRAL AND WESTERN NORTH DAKOTA  *****

CITY           SKY/WX    TMP DP  RH WIND       PRES   REMARKS
BISMARCK       CLOUDY    64  48  56 SE9       30.11F
MINOT          MOSUNNY   73  38  27 S7        30.08F
JAMESTOWN      PTSUNNY   68  45  43 SE15      30.11F
MINOT AFB      MOSUNNY   77  37  24 SE14G20   30.06F
GARRISON         N/A     72  40  31 E15       30.09F
WILLISTON      PTSUNNY   73  36  25 SE16G28   30.09F
DICKINSON      CLOUDY    60  45  57 E12       30.09S
HETTINGER      CLOUDY    57  46  66 E12       30.10S
$$

 *****  OTHER AIRPORT OBSERVATIONS IN OUR AREA  *****

CITY           SKY/WX    TMP DP  RH WIND       PRES   REMARKS
WALHALLA         N/A     79  36  21 SE6       30.06F
GRAFTON AIRPOR FAIR      79  43  27 S12       30.07F
VALLEY CITY AR FAIR      70  45  40 SE12G20   30.12F
CANDO          FAIR      75  32  20 S9G18     30.09S
CAVALIER APRT  FAIR      81  32  17 S8        30.06F
GWINNER        NOT AVBL
SHEYENNE NWR     N/A     71  45  38 S9        29.95S
ROLLA            N/A     77  32  19 N3        30.09F
 ***** THE ABOVE OBSERVATIONS ARE NON NWS ARE NOT QUALITY
       CONTROLLED AND MAY MIS-REPORT RAIN FOR SNOW...
$$

  *****  WEATHER ACROSS NORTHERN MINNESOTA  *****

CITY           SKY/WX    TMP DP  RH WIND       PRES   REMARKS
FLAG ISLAND    SUNNY     70  45  40 S9        30.07F
WARROAD        SUNNY     77  43  29 SW9       30.09F
ROSEAU         SUNNY     79  34  19 SW5       30.09F
HALLOCK        SUNNY     79  28  15 S5        30.07F
THF RVR FALLS  PTSUNNY   73  39  29 W8G16     30.11F
BAUDETTE       SUNNY     77  36  22 S12       30.10F
WASKISH        SUNNY     72  50  46 CALM      30.12F
CROOKSTON      MOSUNNY   75  43  31 SW9       30.12S
STEPHEN NDAWN    N/A     79  39  24 SW12        N/A
GREENBUSH NDAW   N/A     77  37  24 SW9         N/A
$$
  *****  WEATHER ACROSS CENTRAL AND WEST MINNESOTA  *****

CITY           SKY/WX    TMP DP  RH WIND       PRES   REMARKS
FOSSTON        MOSUNNY   73  39  29 SW7       30.14S
BEMIDJI        CLOUDY    76  40  28 SW6       30.13F
PARK RAPIDS    PTSUNNY   72  41  32 S13       30.16S
ELBOW LAKE     MOCLDY    66  46  48 S12       30.15F
WADENA         PTSUNNY   66  45  45 SE7G17    30.17F
DETROIT LAKES  PTSUNNY   68  43  40 S8G16     30.17F
MOORHEAD       PTSUNNY   72  43  35 S13       30.14F
FERGUS FALLS   CLOUDY    70  43  37 SE13      30.15F
MORRIS MN      CLOUDY    70  46  43 S12G17    30.14F
STAPLES        CLOUDY    66  39  37 S8        30.18F
$$
  *****  WEATHER ELSEWHERE ACROSS MINNESOTA  *****

CITY           SKY/WX    TMP DP  RH WIND       PRES   REMARKS
DULUTH         MOSUNNY   76  38  25 W10       30.14F
INTRNTL FALLS  SUNNY     79  35  20 W8        30.09F
ELY            MOSUNNY   77  30  18 W6        30.10F
CLOQUET        PTSUNNY   73  37  27 SW14G21   30.15F
WHEATON        PTSUNNY   66  46  48 SE14      30.15F
BRAINERD       PTSUNNY   68  43  40 S9        30.19F
HIBBING        MOSUNNY   77  31  18 VRB7      30.12F
ALEXANDRIA     PTSUNNY   66  43  43 S9        30.19F
SAINT CLOUD    CLOUDY    66  46  48 NE5       30.19F
MINNEAPOLIS    CLOUDY    70  46  42 N12       30.17F
$$

  *****  WEATHER ACROSS SOUTH DAKOTA  *****

CITY           SKY/WX    TMP DP  RH WIND       PRES   REMARKS
SIOUX FALLS    CLOUDY    65  52  62 S10       30.10F
BROOKINGS      CLOUDY    64  50  59 SE3       30.12F
WATERTOWN      CLOUDY    64  49  57 SE13      30.12F
HURON          CLOUDY    65  52  62 SE8       30.09F
SISSETON         N/A     69  47  45 S12       30.12F
ABERDEEN       CLOUDY    65  50  58 N6        30.11F
MITCHELL       CLOUDY    64  54  69 S12       30.09F
PIERRE         CLOUDY    61  53  75 E13       30.04F
MOBRIDGE       CLOUDY    61  52  72 SE10      30.08F
RAPID CITY     CLOUDY    56  49  77 E8        30.02F
$$

  *****  SOME WEATHER IN NEARBY STATES *****

CITY           SKY/WX    TMP DP  RH WIND       PRES   REMARKS
GLASGOW MT     MOSUNNY   71  35  26 E21G26    30.06S
GREAT FALLS MT LGT RAIN  54  49  83 SE6       30.10R
CHEYENNE WY    CLOUDY    54  44  69 SW8       29.95S
SCOTTSBLUFF NE CLOUDY    57  53  86 SE15      29.94F
OMAHA NE       CLOUDY    65  57  75 S5        30.11F
DES MOINES IA  CLOUDY    73  53  49 S13       30.13F
DAVENPORT IA   PTSUNNY   80  48  32 S13       30.19F
CHICAGO IL     MOSUNNY   80  40  23 SW10G17   30.20F
EAU CLAIRE WI  PTSUNNY   74  40  29 SE6       30.18F
LA CROSSE WI   CLOUDY    79  43  27 MISG      30.16F
$$

  *****  SOME NATIONAL WEATHER *****

CITY           SKY/WX    TMP DP  RH WIND       PRES   REMARKS
LA GUARDIA NY  SUNNY     66  32  28 S15       30.33S
RALEIGH NC     MOSUNNY   77  46  33 CALM      30.37F
ATLANTA GA     MOSUNNY   80  50  34 E9G17     30.30F
NEW ORLEANS LA PTSUNNY   83  68  60 SE12      30.13F
OKLAHOMA CITY  DRIZZLE   70  68  93 SE16      29.93F FOG
ALBUQUERQUE NM MOSUNNY   71  21  15 E6G20     29.92F
SALT LAKE CITY PTSUNNY   58  45  62 N7        29.93S
LOS ANGELES CA MOSUNNY   64  52  64 W10       30.06F
BOISE ID       PTSUNNY   75  46  35 NW14G30   29.82S
SEATTLE WA     CLOUDY    60  50  69 SW8       30.20R
$$

*** WEATHER ACROSS MANITOBA...SASKATCHEWAN AND ONTARIO ***
                ***ONTARIO***

CITY           SKY/WX    TMP DP  RH WIND       PRES   REMARKS
GERALDTON      PTSUNNY   73  43  33 NW6       30.00F
THUNDER BAY    PTSUNNY   82  34  17 W16G28    30.02F
SIOUX LOOKOUT  LGT RAIN  75  36  23 NW10G17   30.02S
TORONTO        MOSUNNY   72  30  21 W16G25    30.27F
BIG TROUT LK   SUNNY     54  25  32 NW9       30.09F
PICKLE LAKE    MOSUNNY   72  43  35 N9        29.99S
DRYDEN         SUNNY     79  34  19 SW20G29   30.03F
KENORA         MOSUNNY   77  46  33 MISG      30.08S
$$
                *** MANITOBA***

CITY           SKY/WX    TMP DP  RH WIND       PRES   REMARKS
BRANDON        PTSUNNY   81  34  18 N3        30.06F
DAUPHIN        MOSUNNY   79  41  25 NE25G31   30.03S
ISLAND LAKE    MOSUNNY   57  28  33 N6        30.14S
PILOT MOUND      N/A     79  28  15 S3          N/A
THE PAS        MOSUNNY   66  37  34 N7        30.15S
THOMPSON       MOSUNNY   59  21  23 W3        30.16F
WINNIPEG       MOSUNNY   82  36  18 SW9       30.05F
LYNN LAKE      SUNNY     63  25  23 NW12G17   30.18F
CHURCHILL      PTSUNNY   52  27  37 W14       30.02F
GILLAM         MOSUNNY   52  25  35 W8        30.15F
$$
                ***SASKATCHEWAN***

CITY           SKY/WX    TMP DP  RH WIND       PRES   REMARKS
ESTEVAN        PTSUNNY   75  34  22 E7        30.10F
KINDERSLEY     PTSUNNY   77  28  16 NE10      30.09F
LLOYDMINSTER   PTSUNNY   79  27  14 VRB2      30.10S
PRINCE ALBERT  MOSUNNY   82  36  18 NE10      30.06S
REGINA         PTSUNNY   77  30  18 CALM      30.09F
YORKTON        SUNNY     81  32  17 SE5       30.06F
N. BATTLEFORD  MOSUNNY   81  27  13 VRB2      30.09F
LA RONGE       MOSUNNY   68  32  26 NE8       30.16F
SASKATOON      PTSUNNY   81  27  13 SW5       30.09F
SWIFT CURRENT  MOSUNNY   72  28  20 E18G24    30.11F
$$
NOTE: THESE ARE AUTOMATED STATIONS WITH LIMITED QUALITY CONTROL
      "FAIR" INDICATES FEW OR NO CLOUDS BELOW 12,000 FEET WITH NO
      SIGNIFICANT WEATHER AND/OR OBSTRUCTIONS TO VISIBILITY.
      SKY/WX - SKY CONDITION AND SIGNIFICANT WEATHER.
      TMP - AIR TEMPERATURE.    DP   - DEWPOINT TEMPERATURE.
      RH  - RELATIVE HUMIDITY.  PRES - PRESSURE.
      HX  - HEAT INDEX.         WCI  - WIND CHILL INDEX.
$



USA.gov is the U.S. government's official web portal to all federal, state and local government web resources and services.